Wind_Speed
25 27 25 24 24 23 24 24 24 23 22 22 21 19 18 17 14 13 11 10 9 7 6 5 4 4 4 3 3 4 4 2 2 3 7 7 3 1 2 4 3 2 4
27 28 26 26 25 25 26 26 24 25 24 24 22 20 20 19 17 16 14 12 10 9 8 7 7 6 5 5 4 4 4 3 3 2 2 1 1 4 5 5 3 3 8
29 26 24 24 25 27 28 28 27 26 26 25 24 22 22 20 18 18 16 13 12 11 10 9 8 7 7 7 6 7 6 4 4 5 3 2 3 5 7 6 6 9 12
29 26 25 28 28 25 26 26 27 27 28 27 26 24 23 21 20 20 18 16 14 13 11 10 10 9 9 8 7 6 6 6 6 6 4 4 3 2 2 3 9 15 20
29 27 27 32 30 25 26 27 27 28 29 29 27 27 25 23 23 21 19 18 16 15 14 12 12 11 10 8 9 9 8 7 6 7 4 4 2 1 1 4 11 16 12
29 30 29 30 29 28 29 30 29 28 28 29 30 30 28 26 25 23 21 20 18 17 16 14 12 11 11 11 10 9 7 6 5 3 4 2 2 3 4 8 12 10 4
27 28 28 28 30 30 30 29 30 30 30 31 32 31 31 30 26 23 21 22 21 20 18 16 15 14 12 11 8 6 8 7 6 4 4 4 3 2 5 8 8 9 10
26 25 25 27 30 31 32 31 30 29 29 31 33 33 32 33 29 26 23 24 23 22 21 19 19 16 15 12 11 10 9 8 8 9 12 9 7 7 6 8 10 10 13
24 27 29 28 28 29 30 31 30 29 29 29 31 31 30 33 31 28 24 26 25 25 22 20 20 19 17 15 14 13 11 9 8 8 8 5 5 6 6 7 6 7 5
25 28 29 29 29 29 30 32 30 28 28 27 28 29 29 31 30 27 26 29 29 27 25 24 23 21 19 17 18 15 14 12 10 10 10 9 9 8 4 6 4 3 4
30 31 32 32 31 29 29 29 30 29 26 26 27 29 29 27 30 27 26 28 28 22 25 26 26 21 18 18 18 17 16 12 10 11 10 9 7 6 7 6 6 6 7
29 29 30 30 30 28 27 29 27 25 25 26 26 28 28 27 27 28 27 28 26 24 22 23 25 23 20 19 18 16 13 12 13 12 10 10 9 8 8 9 9 9 10
29 28 30 33 32 29 28 29 28 24 23 25 25 22 26 26 26 25 23 23 27 24 25 22 21 20 19 19 17 16 13 14 14 13 13 11 10 8 9 8 6 7 10
28 30 30 29 29 31 31 29 27 28 25 22 19 21 23 24 23 23 22 20 25 26 25 21 18 19 21 22 18 16 16 18 17 15 13 11 9 8 6 6 7 8 11
23 23 24 23 25 27 26 27 27 29 23 24 25 25 21 20 26 25 24 21 22 23 22 22 21 21 21 20 20 18 16 16 15 14 13 12 8 7 7 7 7 9 10
27 24 25 24 25 25 26 30 27 26 28 26 24 27 29 29 28 23 22 22 22 23 24 20 21 21 21 20 20 19 19 17 18 17 16 14 10 9 9 8 8 9 11
28 29 27 25 24 24 24 23 24 33 26 27 24 23 23 27 27 24 24 23 23 25 25 21 23 24 22 21 21 19 17 20 19 18 18 16 12 11 8 8 9 10 11
30 29 26 26 26 25 24 24 24 23 23 26 25 25 24 23 23 23 23 22 23 28 25 24 23 22 22 21 21 20 19 18 20 21 20 16 13 11 10 10 10 11 12
30 27 29 29 28 26 26 26 25 24 24 25 25 26 26 21 19 21 24 25 22 23 25 24 23 23 23 24 22 22 21 21 23 21 19 15 13 12 12 11 11 11 12
29 29 25 26 26 24 24 23 23 23 23 23 22 23 24 18 17 18 21 24 25 25 25 21 23 25 25 24 24 24 21 20 21 21 19 16 14 13 13 11 11 11 12
28 28 26 26 24 22 24 23 24 24 25 25 25 25 23 19 19 19 19 22 26 25 24 24 23 25 26 27 26 24 22 24 24 22 19 17 15 15 12 11 10 11 12
28 29 27 25 26 24 24 26 27 27 27 26 26 27 26 24 20 21 22 24 26 27 28 27 27 28 30 28 25 23 23 26 24 23 21 18 16 14 12 11 10 12 13
28 29 28 28 27 27 28 28 27 26 26 26 26 25 25 24 22 21 23 23 25 27 29 30 28 29 28 25 23 22 23 25 25 24 22 19 17 15 13 12 12 12 14
30 29 28 28 28 27 27 28 29 29 25 26 27 25 25 25 24 23 23 24 25 28 30 31 31 29 26 24 22 20 21 21 22 22 20 20 18 14 14 14 13 15 18
32 30 29 28 27 28 28 28 28 27 25 26 26 25 25 25 24 25 23 24 26 28 30 30 29 27 25 23 21 20 20 20 21 21 20 19 18 16 14 13 14 16 16
31 31 30 28 27 27 28 28 27 25 26 27 26 26 26 25 25 25 22 24 26 29 30 29 27 26 23 21 20 19 19 20 20 20 21 19 16 14 12 13 14 17 16
Wind_Direction
323 309 296 300 297 288 283 280 277 279 276 272 276 277 280 282 279 279 277 276 274 262 251 253 262 256 247 253 240 237 252 249 135 118 132 159 198 290 278 301 318 324 287
334 329 303 292 296 288 285 286 284 277 276 273 276 274 277 278 275 277 275 266 264 256 255 243 227 223 227 226 225 216 197 207 207 160 167 184 234 337 332 347 352 312 312
328 327 324 301 293 292 288 289 285 279 276 269 272 268 272 274 272 273 272 266 260 253 247 241 237 234 223 215 214 204 197 194 181 176 194 222 292 335 332 330 324 314 322
328 326 325 323 309 301 301 292 286 281 272 269 263 267 268 269 267 269 269 267 263 258 253 249 241 232 222 217 214 214 212 195 183 179 187 209 219 269 288 309 319 331 337
328 327 328 326 318 304 306 307 299 284 271 264 258 262 267 263 263 265 264 262 259 255 254 251 244 244 236 229 221 211 211 214 202 182 181 200 254 325 15 332 328 336 359
332 332 332 330 326 314 310 308 303 293 277 264 259 263 265 258 258 259 257 253 250 250 252 254 251 248 250 244 237 237 233 221 217 210 176 192 260 314 330 344 342 359 345
333 333 336 336 330 327 325 319 306 297 288 272 264 263 265 263 259 256 249 245 243 240 240 241 241 247 253 245 243 244 244 248 248 244 251 261 255 242 313 317 321 315 293
331 334 335 333 329 327 326 324 319 308 290 279 272 269 266 266 260 254 245 242 244 240 236 235 231 238 235 238 244 242 242 254 258 260 262 266 262 285 292 302 301 302 310
337 334 334 334 329 329 324 327 325 314 303 288 281 275 272 272 266 258 246 237 242 242 236 234 233 232 231 225 222 228 235 235 243 252 257 239 254 266 280 284 293 334 325
332 334 339 342 339 332 331 329 326 315 305 296 285 280 277 275 271 258 243 237 239 242 238 235 233 233 227 219 219 222 222 225 218 208 212 242 261 267 247 255 265 291 286
336 337 339 342 342 340 335 333 331 322 311 301 290 284 280 275 272 264 245 234 236 237 237 236 234 224 217 215 215 223 219 221 203 219 236 246 232 231 220 240 260 261 262
333 328 330 333 333 335 336 335 331 324 311 305 301 292 282 275 268 266 252 238 238 235 234 234 237 223 219 217 217 221 213 218 221 226 229 225 233 217 238 267 269 269 270
329 323 326 330 330 331 330 334 333 325 311 300 297 286 281 279 274 273 253 244 241 238 241 239 236 223 212 207 212 213 216 217 219 225 224 221 217 229 258 271 262 273 281
327 328 326 323 324 323 325 328 327 328 317 300 287 279 279 278 271 266 247 242 244 238 239 230 220 212 210 206 209 215 227 226 226 227 222 219 228 251 247 244 271 292 298
325 324 323 320 317 315 314 315 314 319 316 296 287 283 277 274 271 265 249 233 235 234 231 218 204 193 193 203 219 223 215 218 220 217 220 220 234 234 237 250 279 294 279
324 325 324 323 320 315 312 313 314 308 314 314 302 290 285 280 276 259 232 230 234 234 226 205 205 197 200 205 208 213 224 219 224 225 228 224 223 225 245 267 275 283 283
311 313 312 312 309 306 307 304 303 312 307 308 306 305 298 287 281 258 235 232 234 234 222 215 207 203 205 209 210 207 205 222 223 224 226 225 223 236 241 260 281 286 283
306 303 300 298 297 295 294 293 295 295 299 303 301 302 306 295 282 263 242 244 230 226 224 218 208 204 206 206 205 202 213 222 220 221 219 220 231 231 243 257 270 276 284
297 291 295 296 294 291 291 291 292 292 289 286 290 297 307 300 272 273 248 232 225 224 225 218 202 200 204 208 204 208 214 213 218 214 214 222 223 226 242 255 265 272 280
293 293 285 287 290 292 295 296 296 296 293 289 284 278 288 290 260 262 254 223 226 228 220 211 200 202 207 202 207 210 211 211 211 215 216 223 224 228 236 248 260 267 275
291 290 288 291 288 295 297 295 295 295 294 291 288 285 281 268 257 249 248 240 230 225 215 211 207 208 204 207 208 210 210 211 215 215 215 216 218 220 233 248 259 266 277
293 289 287 282 283 282 286 289 291 295 292 289 288 288 284 272 260 252 241 239 235 226 219 210 209 205 206 210 213 212 211 213 216 216 216 214 215 221 229 245 253 262 272
288 284 283 282 280 278 283 282 281 280 283 283 282 280 278 269 262 256 245 240 232 224 218 210 207 208 219 217 217 215 215 219 219 215 212 210 210 218 228 238 246 257 267
288 283 278 276 276 276 277 281 283 283 276 279 278 276 275 270 261 255 250 240 229 221 216 215 213 218 217 213 213 214 219 222 218 213 213 207 208 211 223 229 245 257 273
281 278 276 273 273 278 277 279 281 278 276 276 271 269 272 269 258 254 247 239 226 210 210 213 218 217 214 212 211 212 214 212 207 205 203 206 211 222 223 238 260 276 285
276 274 274 276 276 278 279 280 276 274 280 280 273 271 270 264 259 254 242 229 215 207 209 214 215 213 211 209 209 211 207 196 197 197 202 208 214 220 234 255 271 278 283
Height
778 774 771 769 767 766 764 763 763 762 762 760 759 759 759 757 755 753 751 749 748 747 746 746 747 746 746 746 744 743 742 743 745 749 750 754 756 755 755 756 756 754 756
775 771 767 765 763 761 760 759 758 757 756 756 755 755 755 754 752 751 749 748 746 745 745 744 742 742 743 743 743 743 742 742 744 746 748 749 750 751 752 751 751 750 750
772 768 764 761 759 757 755 754 753 752 750 750 751 750 749 749 749 748 746 745 744 743 742 742 742 742 742 741 741 741 741 743 743 744 745 746 746 746 746 746 744 746 745
769 765 762 758 755 752 750 748 746 745 744 744 744 744 744 744 744 744 744 743 742 741 741 740 740 738 738 740 741 742 742 742 742 745 747 748 748 748 747 746 745 743 739
766 763 759 755 751 748 745 743 741 739 737 737 736 737 737 738 738 739 740 740 739 738 738 738 737 737 737 737 737 738 739 741 742 741 744 745 745 744 743 743 740 738 735
765 760 756 752 747 744 741 738 735 733 732 732 731 730 730 730 731 732 733 734 735 736 736 736 736 736 736 735 735 735 736 736 738 739 738 739 740 741 740 738 736 735 736
762 758 754 749 744 740 737 734 730 728 726 725 725 725 724 725 726 726 727 727 728 729 730 730 731 732 733 733 734 733 734 734 734 735 736 736 736 737 739 738 737 737 737
759 755 751 746 741 736 732 729 725 722 720 719 718 718 718 717 720 721 722 722 722 723 723 724 725 726 727 729 730 730 730 732 733 733 733 734 734 735 735 736 735 734 734
758 753 748 744 739 733 728 724 720 717 714 713 712 711 711 711 713 715 718 717 717 717 719 720 721 722 723 725 725 726 727 728 730 730 733 731 733 733 733 733 733 733 731
756 752 747 742 737 731 726 721 717 713 709 707 706 705 705 704 705 708 711 711 711 712 713 714 715 716 718 721 722 723 723 724 725 727 729 730 729 730 729 730 730 731 732
753 748 743 738 734 729 724 720 715 710 706 704 702 699 699 699 700 702 704 705 705 707 708 708 710 712 712 715 717 720 719 722 722 723 725 726 727 727 727 728 728 729 729
750 746 741 737 733 728 722 716 712 709 705 702 698 695 693 693 694 694 698 699 700 702 701 703 705 708 710 712 714 715 717 718 718 720 720 721 723 723 724 724 726 726 725
747 742 737 733 729 725 720 713 708 704 701 698 695 692 688 688 688 690 692 694 696 697 696 697 700 703 705 707 710 712 713 714 715 716 717 718 719 719 721 721 722 721 720
744 737 733 728 723 719 715 712 706 701 696 693 690 688 684 682 682 682 684 686 689 691 693 693 695 698 700 702 705 707 708 709 710 711 713 714 715 716 718 718 718 717 716
741 736 731 726 721 716 711 709 703 698 695 690 686 683 680 677 675 677 679 680 681 684 687 687 689 692 694 696 699 700 701 704 706 707 709 710 711 712 714 714 713 714 714
735 730 726 721 716 712 707 699 698 694 689 686 682 679 674 671 671 670 671 673 674 677 678 678 681 683 686 689 692 693 695 698 699 701 704 705 707 709 710 710 710 710 710
731 727 724 720 714 709 704 699 691 682 682 678 674 671 669 666 665 664 664 665 667 670 668 669 671 674 677 682 684 686 688 691 694 696 699 700 702 705 706 706 706 706 706
726 722 720 715 709 704 699 695 690 683 677 669 666 665 662 659 657 657 658 659 660 661 660 661 663 666 670 674 678 681 683 687 690 692 694 696 698 700 701 702 703 703 702
719 716 713 708 703 698 693 688 682 677 672 667 660 655 653 651 650 650 650 650 651 652 653 653 655 659 664 668 671 674 678 681 685 687 689 691 694 695 696 698 699 699 698
710 707 704 700 695 691 688 683 677 671 667 660 655 650 645 644 643 642 641 640 642 643 645 646 649 653 657 661 666 669 672 676 679 682 684 687 690 691 693 694 694 694 694
702 697 694 691 687 685 681 677 672 667 661 655 649 645 642 638 635 634 634 633 634 635 637 640 643 647 651 655 659 663 666 670 673 676 679 682 685 687 689 690 690 690 690
695 690 686 683 679 676 672 669 664 659 653 648 642 638 636 632 627 625 625 626 627 627 629 633 636 640 644 648 652 656 660 664 667 671 674 677 680 683 684 685 686 687 686
686 682 678 674 670 666 662 657 652 648 643 639 635 630 627 624 621 618 617 617 619 620 622 626 629 634 638 642 646 650 653 657 661 665 669 672 675 677 679 681 683 683 682
677 673 669 664 661 657 652 647 642 638 634 630 626 622 619 616 613 611 610 610 611 613 615 619 622 627 631 636 640 644 648 652 656 660 663 667 670 673 675 677 678 678 677
667 663 659 655 651 647 641 636 631 628 624 620 616 612 609 607 604 603 602 603 604 606 609 612 617 621 626 630 634 638 643 647 651 655 658 662 665 668 670 672 672 672 672
657 653 649 645 640 637 632 626 622 618 615 611 606 603 600 598 596 595 595 596 598 600 603 607 611 616 621 625 630 634 639 643 646 650 654 658 661 663 665 666 667 667 666